Regional Weather Roundup
Issued by NWS Newport/Morehead, NC

Current Version | Previous Version | Graphics & Text | Print | Product List | Glossary Off
Versions: 1 2 3 4 5 6 7 8 9 10 11 12 13 14 15 16 17 18 19 20 21 22 23 24 25 26 27 28 29 30 31 32 33 34 35 36 37 38 39 40 41 42 43 44 45 46 47 48 49 50

103
ASUS42 KMHX 200112
RWRMHX
WEATHER ROUNDUP FOR EASTERN NORTH CAROLINA
NATIONAL WEATHER SERVICE NEWPORT/MOREHEAD CITY NC
800 PM EST THU JAN 19 2017

NOTE: "FAIR" INDICATES FEW OR NO CLOUDS BELOW 12,000 FEET
WITH NO SIGNIFICANT WEATHER AND/OR OBSTRUCTIONS TO VISIBILITY

NCZ015>017-031-032-045>047-102-103-200200-
NORTH COAST

CITY           SKY/WX    TMP DP  RH WIND       PRES   REMARKS
EDENTON        CLOUDY    43  41  90 CALM      30.04F
ELIZABETH CITY CLEAR     44  40  85 E7        30.05S
KITTY HAWK     NOT AVBL
MANTEO         CLEAR     42  42  99 CALM      30.05F

$$

NCZ045>047-081-094-103-104-200200-
CENTRAL COAST

CITY           SKY/WX    TMP DP  RH WIND       PRES   REMARKS
FRISCO         CLEAR     46  42  86 E5        30.05S FOG

$$

NCZ095-097-098-100-101-200200-
SOUTHERN COAST

CITY           SKY/WX    TMP DP  RH WIND       PRES   REMARKS
BEAUFORT       CLOUDY    45  42  89 CALM      30.04S
CEDAR ISLAND   NOT AVBL
JACKSONVILLE   PTCLDY    48  46  93 CALM      30.02F
PINEY ISLAND   CLEAR    N/A N/A N/A S3        30.03F
WILMINGTON     PTCLDY    46  45  96 E3        30.02F


$$

NCZ011>013-027>030-043-044-078>080-089-090>093-098-200200-
COASTAL PLAIN

CITY           SKY/WX    TMP DP  RH WIND       PRES   REMARKS
AHOSKIE          N/A     40  38  92 CALM      30.03F
CLINTON        PTCLDY    49  46  87 CALM      30.02S
ELIZABETHTOWN  PTCLDY    52  45  76 SE3       30.01S
GOLDSBORO      PTCLDY    47  46  96 CALM      30.00S
GREENVILLE     CLOUDY    45  43  93 CALM      30.04F
HAVELOCK       PTCLDY    45  43  93 SE5       30.04F
KENANSVILLE    PTCLDY    46  45  93 CALM      30.03S
KINSTON        CLOUDY    46  43  87 CALM      30.04S
NEW BERN       CLOUDY    45  41  86 CALM      30.04F
RICHLANDS      CLOUDY    48  45  89 CALM      30.03S
ROCKY MOUNT    CLOUDY    44  42  93 CALM      30.03R
WASHINGTON     CLEAR     45  42  89 CALM        N/A
WHITEVILLE     CLOUDY    55  45  70 CALM      30.01S

$$

AMZ130-135-150-152-154-156-158-170-250-252-270-ANZ085-086-088-633-658-670-200200-
MARINE OBSERVATIONS

STATION/POSITION TIME  TEMP    WIND        PRES    WAVE   SWELL
                       AIR SEA DIR/SP/G            HT/PER HT/PER
                 (UTC) (F)     (DEG/KT/KT) (MB)    (FT/S) (FT/S)
CHESAPEAKE LIGHT NOT AVBL
64 E VA BEACH    2350   48 56  300/  6/  8 1017.7    5/10   5/10
DUCK             0036   45 45   70/  5/  6 1017.0
2 E DUCK         0030      45                N/A     4/ 9   2/11
OREGON INLET     0036   44 49  100/  2/  3 1017.7
13E OREGON INLT  NOT AVBL
HATTERAS CG      0036   47 55   80/  4/  5 1017.2
DIAMOND BUOY     2350   54 77   20/  6/ 10 1017.7    5/10   5/10
CAPE LOOKOUT     0000   55      40/  4/  6 1016.9
BEAUFORT LAB     0036   51 50   60/  3/  3 1016.0
30 SE NEW RVR IN 0008   57 62   90/  6/  8 1017.1
30 SE NEW RVR IN 0043      62                N/A     3/10
27 SE WRIGHTSVLE 0008   59 70   70/  8/ 12 1016.5
5 SE WRIGHTSVLE  NOT AVBL
225 S CAPE HAT   2350   67 71  360/  4/  8 1016.4    6/10   7/10
41 SE CHARLESTON 2350   68 71   60/ 12/ 16 1015.2    3/ 5   2/10

$$




USA.gov is the U.S. government's official web portal to all federal, state and local government web resources and services.